TimeAKST,TemperatureF,Dew PointF,Humidity,Sea Level PressureIn,VisibilityMPH,Wind Direction,Wind SpeedMPH,Gust SpeedMPH,PrecipitationIn,Events,Conditions,WindDirDegrees,DateUTC
12:16 AM,33.8,32.0,93,30.01,10.0,Calm,Calm,-,N/A,,Overcast,0,2013-01-03 09:16:00
12:36 AM,33.8,30.2,87,30.01,10.0,Calm,Calm,-,N/A,,Overcast,0,2013-01-03 09:36:00
12:56 AM,33.8,32.0,93,30.01,2.5,Calm,Calm,-,N/A,,Overcast,0,2013-01-03 09:56:00
1:16 AM,33.8,32.0,93,30.02,0.8,Calm,Calm,-,N/A,,Overcast,0,2013-01-03 10:16:00
1:36 AM,33.8,30.2,87,30.02,0.5,Calm,Calm,-,N/A,,Overcast,0,2013-01-03 10:36:00
1:56 AM,33.8,32.0,93,30.01,0.5,Calm,Calm,-,N/A,,Overcast,0,2013-01-03 10:56:00
2:16 AM,33.8,32.0,93,30.01,0.2,Calm,Calm,-,N/A,,Overcast,0,2013-01-03 11:16:00
3:36 AM,32.0,30.2,93,30.01,0.2,Calm,Calm,-,N/A,,Overcast,0,2013-01-03 12:36:00
3:56 AM,32.0,30.2,93,30.00,0.2,ENE,3.5,-,N/A,,Overcast,60,2013-01-03 12:56:00
4:16 AM,32.0,30.2,93,30.00,0.2,ESE,3.5,-,N/A,,Overcast,120,2013-01-03 13:16:00
4:36 AM,32.0,30.2,93,29.99,0.2,Calm,Calm,-,N/A,,Overcast,0,2013-01-03 13:36:00
4:56 AM,30.2,28.4,93,29.99,1.2,Calm,Calm,-,N/A,,Mostly Cloudy,0,2013-01-03 13:56:00
5:16 AM,30.2,28.4,93,29.98,0.2,Calm,Calm,-,N/A,,Overcast,0,2013-01-03 14:16:00
5:36 AM,30.2,28.4,93,29.98,0.2,Calm,Calm,-,N/A,,Overcast,0,2013-01-03 14:36:00
5:56 AM,30.2,28.4,93,29.97,0.8,Calm,Calm,-,N/A,,Overcast,0,2013-01-03 14:56:00
6:16 AM,30.2,28.4,93,29.96,0.5,Calm,Calm,-,N/A,,Overcast,0,2013-01-03 15:16:00
6:36 AM,30.2,26.6,86,29.96,0.5,Calm,Calm,-,N/A,,Overcast,0,2013-01-03 15:36:00
6:56 AM,30.2,28.4,93,29.95,0.5,Calm,Calm,-,N/A,,Overcast,0,2013-01-03 15:56:00
7:16 AM,28.4,28.4,100,29.95,0.5,Calm,Calm,-,N/A,,Overcast,0,2013-01-03 16:16:00
7:36 AM,28.4,26.6,93,29.95,0.5,Calm,Calm,-,N/A,,Overcast,0,2013-01-03 16:36:00
8:16 AM,30.2,28.4,93,29.94,0.5,Calm,Calm,-,N/A,,Overcast,0,2013-01-03 17:16:00
8:36 AM,30.2,28.4,93,29.94,0.8,Calm,Calm,-,N/A,,Overcast,0,2013-01-03 17:36:00
8:56 AM,30.2,28.4,93,29.94,7.0,Calm,Calm,-,N/A,,Overcast,0,2013-01-03 17:56:00
9:16 AM,30.2,30.2,100,29.93,2.0,SE,3.5,-,N/A,,Overcast,130,2013-01-03 18:16:00
9:36 AM,32.0,30.2,93,29.92,2.0,East,3.5,-,N/A,,Overcast,100,2013-01-03 18:36:00
9:56 AM,32.0,30.2,93,29.92,10.0,Calm,Calm,-,N/A,,Mostly Cloudy,0,2013-01-03 18:56:00
10:16 AM,32.0,30.2,93,29.91,10.0,Calm,Calm,-,N/A,,Mostly Cloudy,0,2013-01-03 19:16:00
10:36 AM,32.0,30.2,93,29.91,10.0,Calm,Calm,-,N/A,,Mostly Cloudy,0,2013-01-03 19:36:00
10:56 AM,32.0,30.2,93,29.90,10.0,Calm,Calm,-,N/A,,Overcast,0,2013-01-03 19:56:00
11:16 AM,32.0,30.2,93,29.90,10.0,Calm,Calm,-,N/A,,Overcast,0,2013-01-03 20:16:00
11:36 AM,32.0,30.2,93,29.89,7.0,Calm,Calm,-,N/A,,Overcast,0,2013-01-03 20:36:00
11:56 AM,32.0,30.2,93,29.88,7.0,Calm,Calm,-,N/A,,Overcast,0,2013-01-03 20:56:00
12:16 PM,32.0,30.2,93,29.87,7.0,Calm,Calm,-,N/A,,Overcast,0,2013-01-03 21:16:00
12:36 PM,33.8,30.2,87,29.86,5.0,Calm,Calm,-,0.01,,Overcast,0,2013-01-03 21:36:00
12:56 PM,33.8,30.2,87,29.85,7.0,Calm,Calm,-,0.01,,Overcast,0,2013-01-03 21:56:00
1:16 PM,33.8,30.2,87,29.85,7.0,Calm,Calm,-,0.02,,Overcast,0,2013-01-03 22:16:00
1:36 PM,33.8,30.2,87,29.84,7.0,Calm,Calm,-,0.02,,Overcast,0,2013-01-03 22:36:00
1:56 PM,33.8,30.2,87,29.84,7.0,Calm,Calm,-,0.03,,Overcast,0,2013-01-03 22:56:00
2:16 PM,33.8,30.2,87,29.84,7.0,Calm,Calm,-,0.02,,Overcast,0,2013-01-03 23:16:00
2:36 PM,33.8,30.2,87,29.83,7.0,Calm,Calm,-,0.03,,Overcast,0,2013-01-03 23:36:00
3:16 PM,33.8,30.2,87,29.83,7.0,Calm,Calm,-,0.02,,Overcast,0,2013-01-04 00:16:00
3:36 PM,33.8,30.2,87,29.82,7.0,Calm,Calm,-,0.03,,Overcast,0,2013-01-04 00:36:00
3:56 PM,33.8,30.2,87,29.82,7.0,Calm,Calm,-,0.04,,Overcast,0,2013-01-04 00:56:00
4:16 PM,33.8,30.2,87,29.81,7.0,WSW,3.5,-,0.01,,Overcast,250,2013-01-04 01:16:00
4:36 PM,33.8,32.0,93,29.81,7.0,ESE,5.8,-,0.01,,Overcast,110,2013-01-04 01:36:00
4:56 PM,37.4,35.6,93,29.80,4.0,ESE,8.1,17.3,0.03,,Overcast,120,2013-01-04 01:56:00
5:16 PM,37.4,35.6,93,29.80,4.0,ESE,11.5,-,N/A,,Overcast,120,2013-01-04 02:16:00
5:36 PM,37.4,35.6,93,29.80,4.0,SE,8.1,-,0.01,,Overcast,130,2013-01-04 02:36:00
5:56 PM,37.4,33.8,87,29.80,3.0,SE,5.8,16.1,0.03,,Overcast,140,2013-01-04 02:56:00
6:16 PM,37.4,35.6,93,29.79,3.0,SE,6.9,-,0.02,,Overcast,130,2013-01-04 03:16:00
6:36 PM,37.4,33.8,87,29.79,3.0,East,8.1,18.4,0.03,,Overcast,90,2013-01-04 03:36:00
6:56 PM,37.4,35.6,93,29.79,3.0,East,6.9,-,0.03,,Overcast,100,2013-01-04 03:56:00
7:16 PM,37.4,33.8,87,29.79,3.0,ESE,4.6,-,0.02,,Overcast,120,2013-01-04 04:16:00
7:36 PM,37.4,35.6,93,29.78,3.0,East,5.8,-,0.02,,Overcast,90,2013-01-04 04:36:00
7:56 PM,39.2,35.6,87,29.78,3.0,ESE,6.9,-,0.04,,Mostly Cloudy,110,2013-01-04 04:56:00
8:16 PM,39.2,33.8,81,29.78,3.0,ESE,6.9,-,0.01,,Mostly Cloudy,110,2013-01-04 05:16:00
8:36 PM,39.2,33.8,81,29.78,3.0,East,6.9,-,0.02,,Mostly Cloudy,100,2013-01-04 05:36:00
8:56 PM,39.2,33.8,81,29.78,3.0,ESE,8.1,-,0.03,,Overcast,110,2013-01-04 05:56:00
9:16 PM,39.2,33.8,81,29.78,3.0,ESE,9.2,16.1,0.01,,Overcast,110,2013-01-04 06:16:00
9:36 PM,39.2,33.8,81,29.80,3.0,South,4.6,-,0.01,,Overcast,180,2013-01-04 06:36:00
9:56 PM,37.4,33.8,87,29.80,2.5,SW,4.6,-,0.03,,Overcast,230,2013-01-04 06:56:00
10:16 PM,37.4,33.8,87,29.81,10.0,South,5.8,-,0.01,,Overcast,180,2013-01-04 07:16:00
10:36 PM,37.4,35.6,93,29.82,8.0,Calm,Calm,-,0.04,,Overcast,0,2013-01-04 07:36:00
10:56 PM,37.4,35.6,93,29.84,8.0,Calm,Calm,-,0.06,,Overcast,0,2013-01-04 07:56:00
11:16 PM,37.4,35.6,93,29.85,9.0,South,3.5,-,0.01,,Overcast,170,2013-01-04 08:16:00
11:36 PM,37.4,33.8,87,29.86,8.0,Calm,Calm,-,0.04,,Overcast,0,2013-01-04 08:36:00
11:56 PM,37.4,33.8,87,29.87,10.0,SSW,3.5,-,0.06,,Overcast,200,2013-01-04 08:56:00